Location: Northbourne
(51.2167°N, 1.3333°E)
Time: 15:02:54
(UTC+00:00)

Daily predictions for brighter satellites

Satellite Brightness Start Highest point End
(mag) Time Altitude Azimuth Time Altitude Azimuth Time Altitude Azimuth
USA 267 3.9 16:15:04 10° ENE 16:21:16 43° SE 16:27:26 10° SSW
SJ 16-02 2.8 16:19:44 10° NW 16:23:55 44° WSW 16:28:04 10° S
H-2A R/B 3.0 16:21:30 10° ESE 16:25:31 24° ENE 16:29:29 10° N
USA 276 4.2 16:24:51 10° W 16:27:36 29° SSW 16:30:22 10° SE
Cosmos 1763 Rocket 4.2 16:23:32 10° SSE 16:28:03 34° ESE 16:32:39 10° NE
USA 305 3.0 16:23:54 10° W 16:28:07 65° N 16:32:21 10° ENE
Cosmos 1656 3.8 16:23:56 10° NNW 16:29:29 82° WSW 16:35:06 10° SSE
CZ-4B R/B 2.9 16:25:39 10° SSE 16:29:35 55° ENE 16:33:20 10° N
USA 229 DEB 4.0 16:26:55 10° NW 16:34:12 87° NE 16:41:59 10° SE
USA 229 4.0 16:27:01 10° NW 16:34:17 86° NE 16:42:04 10° SE
Cosmos 1933 4.5 16:31:11 10° SE 16:34:27 24° E 16:37:43 10° NE
Cosmos 1937 Rocket 3.8 16:30:39 10° NNW 16:35:50 48° ENE 16:40:58 10° SE
Cosmos 1464 Rocket 4.1 16:30:04 10° S 16:36:25 75° E 16:42:48 10° NNE
Cosmos 1500 Rocket 3.7 16:34:29 10° N 16:38:54 57° ENE 16:43:14 10° SSE
Cosmos 1666 4.3 16:36:55 10° NNE 16:38:57 14° ENE 16:40:59 10° E
Cosmos 1461 4.4 16:35:28 10° W 16:39:04 27° NNW 16:42:34 10° NNE
SL-16 R/B 4.3 16:34:08 10° N 16:39:10 27° NW 16:44:12 10° WSW
Nadezhda 4 Rocket 4.0 16:34:19 10° N 16:40:40 77° E 16:47:01 10° SSE
SL-24 R/B - RUBIN 2 3.8 16:36:43 10° NW 16:41:17 48° NE 16:45:31 10° ESE
SeaSat 1 3.5 16:37:28 10° NNE 16:42:06 41° NW 16:46:42 10° WSW
Cosmos 2322 Rocket 3.7 16:38:28 10° NNW 16:42:15 18° NNE 16:45:58 10° ENE
Cosmos 990 Rocket 4.0 16:37:37 10° NNW 16:42:51 89° ENE 16:48:02 10° SSE
ATLAS 2AS CENTAUR R/B 3.8 16:35:53 10° W 16:43:00 37° NNW 16:49:49 10° NE
Cosmos 1697 Rocket 2.6 16:39:30 10° NNW 16:45:09 73° ENE 16:50:46 10° SE
Cosmos 372 Rocket 4.4 16:42:03 10° NNW 16:47:00 40° NE 16:51:56 10° SE
FengYun 1-2 T 4.2 16:41:46 10° SSE 16:47:19 71° ENE 16:52:50 10° NNW
Cosmos 1271 Rocket 4.0 16:44:35 10° SW 16:48:22 43° WNW 16:52:14 10° N
Sich 1 3.6 16:44:36 10° N 16:48:34 35° ENE 16:52:31 10° SE
Cosmos 1980 Rocket 2.4 16:43:53 10° NNW 16:49:23 47° NE 16:54:49 10° SE
NOSS 2-1 (C) 4.1 16:46:28 10° W 16:49:27 33° NNW 16:52:42 10° NNE
Cosmos 1805 Rocket 3.8 16:46:26 10° N 16:50:37 45° ENE 16:54:47 10° SSE
NOAA 6 4.0 16:45:38 10° SSE 16:50:41 61° ENE 16:55:46 10° N
Cosmos 2369 3.8 16:45:41 10° NNW 16:51:22 58° NE 16:57:01 10° SE
Cosmos 2221 2.6 16:48:15 10° SSW 16:52:32 83° W 16:56:53 10° N
CZ-4C R/B 3.0 16:48:53 10° NW 16:55:34 58° NE 17:03:34 10° ESE
Cosmos 1092 Rocket 4.1 16:50:14 10° N 16:56:34 63° ENE 17:02:50 10° SSE
USA 234 3.4 16:50:13 10° SE 16:56:47 80° SSW 17:03:22 10° WNW
Cosmos 1842 Rocket 3.7 16:52:57 10° S 16:57:25 86° W 17:01:57 10° N
Cosmos 2084 4.4 16:53:19 10° NW 16:57:28 52° SW 17:01:48 10° SSE
NOSS 3-1 (A) 4.4 16:50:25 10° NW 16:57:44 73° SW 17:06:22 10° SSE
NOSS 2-1 (D) 4.3 16:55:56 10° W 16:58:50 29° NNW 17:01:53 11° NNE
USA 306 3.1 16:56:04 10° W 17:00:17 59° N 17:03:35 16° ENE
SL-16 R/B 3.3 16:55:52 10° NNW 17:00:27 24° NE 17:04:15 13° E
Cosmos 1812 4.2 16:58:50 10° SE 17:01:30 18° E 17:02:43 16° ENE
ISS -3.5 16:58:07 10° W 17:01:31 71° SSW 17:04:54 10° ESE
Meteor 1-25 Rocket 4.1 16:56:43 10° N 17:02:19 77° ENE 17:07:55 10° SSE
NOSS 2-2 (D) 4.1 16:58:36 10° NW 17:03:27 74° NE 17:10:13 10° SE
NOSS 2-2 (E) 4.3 16:58:47 10° NW 17:03:48 85° NE 17:10:53 10° SE
deb Chang Zheng 4 4.3 17:02:26 10° ESE 17:06:11 30° ENE 17:09:57 10° N
SMAP 3.0 17:01:59 10° SSE 17:06:39 81° ENE 17:11:20 10° NNW
Cosmos 2082 Rocket 3.1 17:02:11 10° SSE 17:07:01 30° ESE 17:10:43 15° NE
Meteor PRIRODA 4.4 17:03:47 10° S 17:07:20 54° W 17:10:55 10° NNW
Cosmos 1939 Rocket 2.9 17:03:45 10° SSE 17:07:52 89° ENE 17:11:58 10° NNW
Cosmos 858 Rocket 4.5 17:03:03 10° NNW 17:08:23 76° ENE 17:13:39 10° SSE
CORIOLIS 4.1 17:04:16 10° SSE 17:09:39 78° ENE 17:15:06 10° NNW
Cosmos 2333 Rocket 4.0 17:07:39 10° N 17:10:40 14° NNE 17:12:25 13° NE
Cosmos 44 Rocket 3.9 17:06:02 10° NNW 17:10:41 37° NE 17:14:23 14° E
Cosmos 2278 3.8 17:09:48 10° NNW 17:15:25 53° NE 17:20:59 10° SE
Cosmos 1602 3.6 17:12:02 10° N 17:15:54 80° E 17:19:46 10° SSE
CZ-4B DEB 4.1 17:10:32 10° SSE 17:16:02 77° ENE 17:21:32 10° NNW
Cosmos 1627 Rocket 4.4 17:11:51 10° N 17:18:04 75° ENE 17:24:11 10° SSE
USA 307 3.1 17:14:51 10° W 17:19:05 58° N 17:21:38 23° ENE
AQUARIUS 4.2 17:16:04 10° SSE 17:20:34 88° WSW 17:25:06 10° NNW
SL-16 R/B 4.4 17:19:13 10° NNW 17:20:44 11° NNW 17:22:15 10° N
Cosmos 540 Rocket 3.6 17:16:56 10° S 17:21:54 55° ESE 17:26:07 14° NE
H-2A R/B 4.5 17:25:03 12° NNE 17:25:03 12° NNE 17:25:30 10° NNE
Cosmos 2034 Rocket 4.2 17:17:15 10° SSW 17:23:23 75° WNW 17:29:35 10° N
COSMO-SKYMED 1 3.5 17:23:24 22° ENE 17:25:06 28° E 17:28:51 10° SSE
ARGOS 3.4 17:21:08 10° SE 17:26:15 44° ENE 17:31:22 10° N
Cosmos 2279 Rocket 4.3 17:21:25 10° SSE 17:27:10 42° E 17:32:57 10° NNE
COSMOS 2406 3.3 17:21:51 10° SSW 17:27:32 64° ESE 17:32:10 16° NE
SL-08 R/B 4.3 17:23:57 10° N 17:28:30 47° WNW 17:32:56 10° SW
Cosmos 1833 Rocket 2.6 17:23:11 10° SSW 17:28:49 80° ESE 17:33:41 14° NNE
Meteor 2-21 4.3 17:22:57 10° N 17:29:04 80° ENE 17:35:08 10° SSE
Cosmos 1782 2.8 17:26:28 10° S 17:30:23 59° E 17:33:48 13° NNE
ATLAS 5 CENTAUR R/B 2.7 17:21:48 10° NW 17:31:17 54° NNE 17:33:09 27° E
Cosmos 1633 Rocket 3.3 17:29:34 10° N 17:33:49 46° ENE 17:38:02 10° SSE
Cosmos 1818 3.7 17:29:23 10° NW 17:34:48 54° NE 17:38:50 18° ESE
ATLAS CENTAUR R/B 3.5 17:31:48 10° WNW 17:35:08 20° NNW 17:37:49 13° NNE
Cosmos 2219 Rocket 3.9 17:32:44 10° N 17:35:54 15° NNE 17:36:28 15° NNE
Cosmos 468 Rocket 4.1 17:31:21 10° SSW 17:36:31 76° WNW 17:41:29 12° NNE
YAOGAN 1 3.7 17:39:35 25° NE 17:39:35 25° NE 17:42:21 10° N
ERBS 3.3 17:37:25 10° WNW 17:40:20 31° N 17:41:01 28° NNE
GEOS 3 Rocket 3.8 17:37:58 21° ESE 17:41:13 50° NE 17:46:13 10° NW
CZ-2D R/B 3.2 17:37:29 10° SSE 17:41:20 83° W 17:45:11 10° NNW
USA 308 3.1 17:37:26 10° WNW 17:41:39 59° N 17:43:14 35° ENE
Cosmos 1634 Rocket 4.0 17:37:42 10° S 17:44:02 81° E 17:50:24 10° NNE
SJ-11-01 4.3 17:39:28 10° SSE 17:44:07 57° ENE 17:48:47 10° N
CZ-2C R/B 2.8 17:40:35 16° NNE 17:44:36 46° E 17:49:33 10° S
COSMOS 2455 2.9 17:38:50 10° SSW 17:44:44 59° ESE 17:48:14 25° NE
Cosmos 1500 3.3 17:41:41 10° NNW 17:45:26 73° W 17:49:08 10° S
PAYLOAD B 4.3 17:40:15 10° SSE 17:45:52 82° WSW 17:51:31 10° NNW
Cosmos 2026 Rocket 4.2 17:40:43 10° NNW 17:46:52 74° W 17:52:54 10° S
CZ-4B R/B 3.0 17:42:59 10° SSE 17:48:23 78° ENE 17:53:44 10° NNW
Cosmos 1151 Rocket 3.1 17:45:14 10° S 17:49:26 53° E 17:51:27 28° NNE
Lacrosse 5 rocket 1.2 17:45:35 10° WNW 17:49:27 67° NNE 17:50:36 43° E
Okean O Rocket 1.5 17:48:00 10° SSE 17:52:24 66° ENE 17:56:51 10° N
CZ-4 R/B 3.4 17:59:39 16° N 17:59:39 16° N 18:00:37 10° N
Cosmos 1666 Rocket 3.5 17:55:13 10° NNW 17:59:42 85° W 18:04:07 10° S
Cosmos 2208 Rocket 4.4 17:55:38 10° S 18:00:41 42° ESE 18:01:39 38° ENE
Meteor 1-11 Rocket 3.9 17:56:18 10° N 18:01:41 45° ENE 18:05:45 17° SE
CZ-4 R/B 4.3 17:57:36 10° SSE 18:01:43 75° ENE 18:05:52 10° N
Cosmos 1470 Rocket 3.6 17:58:31 10° N 18:02:54 54° ENE 18:07:18 10° SSE
Cosmos 2150 Rocket 4.0 17:57:55 10° NNW 18:02:59 52° ENE 18:04:48 35° ESE
H-2A R/B 2.5 17:59:28 10° S 18:04:36 63° WSW 18:09:36 10° NNW
USA 267 3.2 18:01:04 30° ENE 18:04:39 82° NNW 18:11:12 10° WSW
Cosmos 1655 Rocket 4.0 17:58:35 10° N 18:04:55 58° ENE 18:11:11 10° SSE
Cosmos 1328 Rocket 3.6 18:02:36 10° S 18:06:57 57° E 18:07:30 53° ENE
Cosmos 2360 Rocket 3.0 18:02:24 10° NNW 18:07:10 31° NE 18:07:10 31° NE
Landsat 5 4.0 18:08:42 40° SE 18:08:42 40° SE 18:11:41 10° S
USA 305 2.8 18:04:04 10° WNW 18:08:18 66° N 18:08:46 60° NE
SKYMED 2 3.4 18:12:01 43° NNE 18:13:25 79° ESE 18:17:45 10° S
Cosmos 1666 3.1 18:11:12 10° NNW 18:14:53 60° W 18:18:33 10° S
Cosmos 2180 Rocket 4.4 18:09:31 10° S 18:15:49 71° E 18:22:05 10° NNE
Cosmos 841 Rocket 3.6 18:10:54 10° SSW 18:16:03 73° WNW 18:18:54 27° NNE
COSMOS 2428 4.4 18:12:41 10° NNW 18:15:41 18° NNE 18:15:41 18° NNE
Feng Yun 1-1 Rocket 4.2 18:11:57 10° SSE 18:17:51 75° ENE 18:23:42 10° NNW
Meteor 2-8 Rocket 4.3 18:13:16 10° S 18:19:23 72° E 18:25:33 10° NNE
ATLAS CENTAUR R/B 2.2 18:12:03 10° WSW 18:20:00 79° NNW 18:20:43 61° NE
Cosmos 1125 Rocket 3.4 18:15:54 10° NNW 18:21:08 66° ENE 18:22:14 52° ESE
Cosmos 2322 Rocket 2.2 18:21:58 10° NNW 18:27:36 56° NE 18:27:49 56° ENE
NOSS 3-4 (A) 4.3 18:27:13 10° NW 18:33:17 38° NNE 18:33:59 37° NE
Cosmos 1980 Rocket 3.6 18:28:08 10° NW 18:33:18 37° WSW 18:38:24 10° S
NOSS 3-4 (C) 4.3 18:27:19 10° NW 18:33:23 38° NNE 18:34:04 37° NE
SL-08 RB Rocket 3.9 18:31:05 10° S 18:35:43 72° WSW 18:40:19 10° NNW
ATLAS 2AS CENTAUR R/B 3.7 18:29:14 10° NW 18:35:58 32° N 18:37:26 30° NNE
Cosmos 1812 3.8 18:33:15 10° SSW 18:36:56 44° WNW 18:37:47 37° NW
ISS -1.5 18:35:18 10° W 18:37:58 21° SW 18:37:58 21° SW
USA 306 3.4 18:36:10 10° WNW 18:39:35 55° NW 18:39:35 55° NW
CZ-4C R/B 3.6 18:37:24 10° NW 18:44:22 54° SW 18:52:28 10° SSE
SL-16 R/B 2.1 18:39:37 10° NNW 18:45:21 90° ENE 18:46:11 67° SSE
Cosmos 2237 Rocket 4.3 18:45:34 10° N 18:47:00 13° N 18:47:00 13° N
Cosmos 2082 Rocket 2.7 18:45:13 10° SW 18:50:49 58° NW 18:52:35 40° N
Cosmos 44 Rocket 4.0 18:47:37 10° NW 18:52:25 51° WSW 18:53:10 46° SSW
Cosmos 2333 Rocket 3.6 18:51:21 10° NNW 18:54:26 27° N 18:54:26 27° N
USA 307 4.2 18:54:57 10° WNW 18:57:40 38° WNW 18:57:40 38° WNW
COSMO-SKYMED 1 3.9 19:00:37 35° NW 19:01:22 38° WNW 19:05:23 10° SW
Cosmos 1833 Rocket 4.4 19:08:43 10° W 19:13:24 26° NW 19:15:24 21° N
ATLAS CENTAUR R/B 4.2 19:12:49 10° NNW 19:13:56 13° NNW 19:13:56 13° NNW
GEOS 3 Rocket 4.4 19:19:06 45° SW 19:19:18 46° SW 19:24:19 10° NW
Cosmos 2219 Rocket 3.9 19:16:02 10° NNW 19:18:11 22° N 19:18:11 22° N
CZ-2C R/B 4.1 19:22:06 20° NNW 19:24:46 32° WNW 19:29:17 10° WSW
Lacrosse 5 rocket 3.9 19:24:49 10° WNW 19:26:13 19° W 19:26:13 19° W
Okean O Rocket 4.4 19:26:14 10° SW 19:29:12 17° W 19:32:11 10° NW
COSMOS 2455 3.9 19:25:21 10° WSW 19:30:59 39° NW 19:31:23 39° NNW
BREEZE-M DEB (TANK) 4.5 19:27:58 10° SW 19:44:57 59° S 19:44:57 59° S
USA 267 3.8 19:48:25 50° NW 19:48:25 50° NW 19:53:44 10° W
Cosmos 2360 Rocket 3.8 19:46:14 10° NW 19:48:57 29° NW 19:48:57 29° NW
Cosmos 2322 Rocket 4.1 20:06:28 10° NW 20:09:40 26° WNW 20:09:40 26° WNW
ATLAS 2AS CENTAUR R/B 4.2 20:21:10 10° NW 20:24:52 30° NNW 20:24:52 30° NNW
